星链-11198 [DTC] (STARLINK-11198 [DTC] )

导读 | 星芒AI

STARLINK-11198 [DTC] 是隶属于SpaceX星链(Starlink)卫星互联网项目的一颗低轨通信卫星。该卫星由SpaceX发射,旨在为全球用户提供高速互联网接入服务。其“DTC”标识可能代表特定的部署或测试配置。该卫星运行在近地轨道,采用先进的推进和通信技术,支持星间链路,提高网络覆盖与响应速度。作为星链计划的一部分,它有助于构建一个覆盖全球的宽带网络系统,特别是在偏远和网络基础设施薄弱的地区。

基本信息
目录编号:
60114
目录名称:
STARLINK-11198
国际标识:
2024-118B
轨道中心:
EARTH
卫星名称:
星链-11198 [DTC]
卫星全名:
星链-11198 [DTC] (STARLINK-11198 [DTC] )
卫星状态:
在轨 (已飞行539 天)
发射日期:
2024-06-24 UTC
国别 :
美国 (US)
星等 :
--
轨道信息
数据来源 国际轨道数据
星历时间: 2025-12-14T20:35:25+0800
1天前
查看轨道信息
半长轴: 6737.777km
偏心率: 0.0000847
轨道倾角: 53.156°
近地点辐角 102.856°
升交点赤经 281.354°
平近点角 257.255°
近地点: 359.071km
远地点: 360.213km
周期: 91.735分钟
每日圈数: 15.697405
详细信息
固有亮度:
5
最大亮度:
0.3
卫星平台:
Starlink v2.0 mini
覆盖范围:
全球
运营商:
太空探索技术公司
运营商所在国:
美国
制造商(研发单位):
太空探索技术公司
制造商所在国:
美国
使用方式:
暂无
卫星简介
星链(Starlink)计划是由太空探索技术公司(SpaceX)提出的一个巨型低轨卫星互联网星座项目,计划在2019年至2024年间在太空搭建由约1.2万颗卫星组成的“星链”网络,其中1584颗将部署在地球上空550千米处的近地轨道,并从2020年开始工作。该卫星仍在工作。
2D轨道图
3D轨道图
轨道高度分析图
轨道倾角分析图
轨道综合分析图
查看轨道综合分析图